Flag for United Kingdom Weather past 2 weeks in Eastbourne, England, United Kingdom

Now
51 °F

Cool.


Feels Like: 50 °F
Forecast: 44 / 60 °F
Wind: 5 mph from Northeast

Location: Herstmonceux

Current Time: Apr 19, 2015 at 7:04:41 PM

Latest Report: Apr 19, 2015 at 6:00 PM


Visibility: 31 mi

Pressure: 30.19 "Hg

Humidity: 53%

Dew point: 35 °F

Location of EastbourneLocation

Historic Weather in Eastbourne — Graph

°F

Eastbourne temperature yesterday

Maximum temperature yesterday: 59 °F (at 2:00 PM)
Minimum temperature yesterday: 40 °F (at 5:00 AM)
Average temperature yesterday: 49 °F

Past Weeks' High & Low Weather Summary

 TemperatureHumidityPressure
High75 °F (Apr 15, 5:00 PM)100% (Apr 7, 7:00 AM)30.66 "Hg (Apr 7, 7:00 AM)
Low35 °F (Apr 6, 5:00 AM)35% (Apr 11, 4:00 PM)29.91 "Hg (Apr 16, 6:00 PM)
Average50 °F77%30.28 "Hg
* Reported Apr 4 5:00 PM — Apr 19 5:00 PM, Eastbourne, Weather by CustomWeather, © 2015

Note: Actual official high and low records may vary slightly from our data, if they occured in-between our weather recording intervals... More about our weather records

Advertising

Eastbourne weather history for previous 24 hours

 ConditionsComfort  
Time TempWeatherWind HumidityBarometerVisibility
5:00 PM
Sun, Apr 19
54 °FCool.8 mph49%30.18 "Hg25 mi
4:00 PM54 °FCool.8 mph46%30.17 "Hg28 mi
3:00 PM52 °FCool.8 mph50%30.20 "Hg22 mi
2:00 PM53 °FCool.8 mph49%30.21 "Hg16 mi
1:00 PM52 °FCool.9 mph54%30.22 "Hg16 mi
12:00 PM52 °FCool.8 mph53%30.22 "Hg16 mi
10:00 AM47 °FCool.9 mph66%30.24 "Hg19 mi
9:00 AM46 °FCool.8 mph74%30.24 "Hg19 mi
8:00 AM42 °FQuite cool.8 mph82%30.26 "Hg14 mi
7:00 AM40 °FChilly.8 mph90%30.25 "Hg11 mi
6:00 AM40 °FQuite cool.7 mph89%30.25 "Hg12 mi
5:00 AM41 °FQuite cool.7 mph89%30.25 "Hg12 mi
3:00 AM41 °FQuite cool.6 mph90%30.28 "Hg12 mi
2:00 AM41 °FQuite cool.6 mph92%30.29 "Hg10 mi
1:00 AM42 °FQuite cool.8 mph90%30.30 "Hg11 mi
12:00 AM43 °FQuite cool.7 mph86%30.31 "Hg12 mi
11:00 PM
Sat, Apr 18
43 °FQuite cool.8 mph85%30.31 "Hg10 mi
10:00 PM44 °FQuite cool.7 mph83%30.30 "Hg12 mi
9:00 PM46 °FCool.6 mph70%30.30 "Hg22 mi
8:00 PM49 °FCool.9 mph56%30.29 "Hg28 mi
7:00 PM52 °FCool.12 mph53%30.28 "Hg22 mi
Weather by CustomWeather, © 2015

See weather overviewHow to use our weather pages